Location: Linz
(48.3300°N, 14.3000°E)
Time: 07:28:16
(UTC+01:00)

Amateur Radio Satellites - All Passes

Search period start: 18 November 2017 06:58
Search period end: 19 November 2017 06:58
Location: Linz, 48.3300°N, 14.3000°E

Satellite Date Start Highest point End Downlink Frequencies (MHz)
Time Altitude Azimuth
LilacSat-2 18 Nov 07:03:05 07:06:26 30° 292° (WNW) 07:09:48 437.200
UWE-3 18 Nov 07:04:59 07:08:14 22° 92° (E) 07:11:26 435.000/436.395/437.385
ZACube-1 18 Nov 07:05:21 07:06:56 12° 88° (E) 07:08:32 437.345
XW-2C 18 Nov 07:05:59 07:09:18 29° 292° (WNW) 07:12:38 145.795 - 145.815
YUBILEINY 18 Nov 07:08:35 07:17:00 50° 289° (WNW) 07:25:32 435.215
CUTE-I 18 Nov 07:09:23 07:14:40 57° 290° (WNW) 07:19:53 437.470
NUDT-PHONESAT 18 Nov 07:12:30 07:15:52 33° 291° (WNW) 07:19:13 437.300
RS-15 18 Nov 07:14:30 07:18:51 13° 269° (W) 07:23:08 29.354- 29.394
CUTE 1.7 + AOD 2 18 Nov 07:19:13 07:23:31 88° 112° (ESE) 07:27:48 437.475
XW-2F 18 Nov 07:20:35 07:23:35 23° 294° (WNW) 07:26:35 145.980 - 146.000
AO-7 18 Nov 07:21:25 07:24:48 13° 329° (NNW) 07:28:12 .
STRAND 1 18 Nov 07:21:26 07:26:11 37° 263° (W) 07:30:57 437.568
FO-29 18 Nov 07:29:05 07:35:37 72° 70° (ENE) 07:43:00 435.910
HO-68 18 Nov 07:33:19 07:40:35 85° 107° (ESE) 07:47:46 435.675
CUBEBUG 2 18 Nov 07:35:48 07:40:03 77° 104° (ESE) 07:44:11 437.445
UNISAT 6 18 Nov 07:35:55 07:38:53 17° 60° (ENE) 07:41:49 437.425
TIGRISAT 18 Nov 07:41:16 07:44:18 18° 61° (ENE) 07:47:18 435.000
KAITUO 1B 18 Nov 07:56:12 07:57:59 13° 299° (WNW) 07:59:46 145.475/437.950
AO-73 18 Nov 07:57:03 08:00:52 35° 97° (E) 08:04:41 145.935
SEEDS 18 Nov 07:57:21 08:01:32 60° 287° (WNW) 08:05:43 437.485
XW-2A 18 Nov 08:00:28 08:03:49 86° 98° (E) 08:07:11 145.665 - 145.685
PCSat 18 Nov 08:05:36 08:09:56 23° 35° (NE) 08:14:15 145.827
PRISM 18 Nov 08:10:29 08:12:34 14° 58° (ENE) 08:14:39 437.425
SO-50 18 Nov 08:13:13 08:16:52 23° 245° (WSW) 08:20:34 436.795
AAUSAT CUBESAT 2 18 Nov 08:15:45 08:19:58 83° 284° (WNW) 08:24:09 437.432
Oscar 11 18 Nov 08:17:41 08:21:48 41° 98° (E) 08:25:53 .
AO-85 18 Nov 08:27:20 08:28:28 11° 345° (NNW) 08:29:37 145.980
ZACube-1 18 Nov 08:39:36 08:43:45 73° 286° (WNW) 08:47:53 437.345
UWE-3 18 Nov 08:40:57 08:44:52 39° 290° (WNW) 08:48:42 435.000/436.395/437.385
CUTE-I 18 Nov 08:52:10 08:53:35 11° 311° (NW) 08:55:01 437.470
CUTE 1.7 + AOD 2 18 Nov 08:56:55 08:58:42 12° 302° (WNW) 09:00:28 437.475
UNISAT 6 18 Nov 09:10:33 09:15:08 67° 258° (WSW) 09:19:39 437.425
YUBILEINY 18 Nov 09:12:54 09:16:33 13° 316° (NW) 09:20:12 435.215
CUBEBUG 2 18 Nov 09:14:01 09:16:04 13° 302° (WNW) 09:18:06 437.445
TIGRISAT 18 Nov 09:15:59 09:20:33 65° 258° (WSW) 09:25:03 435.000
FO-29 18 Nov 09:16:04 09:21:25 26° 273° (W) 09:27:17 435.910
DELFI C3 18 Nov 09:21:41 09:25:31 42° 98° (E) 09:29:19 145.870
HO-68 18 Nov 09:21:57 09:27:32 25° 308° (NW) 09:33:05 435.675
AO-73 18 Nov 09:33:36 09:36:58 25° 295° (WNW) 09:40:20 145.935
Max Valier Satellite 18 Nov 09:40:01 09:43:34 46° 99° (E) 09:47:06 145.860
PRISM 18 Nov 09:43:08 09:47:15 77° 258° (WSW) 09:51:25 437.425
DUCHIFAT 1 18 Nov 09:44:28 09:46:15 12° 58° (ENE) 09:48:02 145.980
EO-79 18 Nov 09:46:07 09:48:44 16° 60° (ENE) 09:51:22 145.935-145.965
EO-88 18 Nov 09:47:09 09:50:37 40° 98° (E) 09:54:04 145.990 - 145.960
PCSat 18 Nov 09:48:35 09:54:03 89° 237° (WSW) 09:59:29 145.827
NANOSAT C BR1 18 Nov 09:51:51 09:54:30 16° 60° (ENE) 09:57:10 145.865
AAUSAT CUBESAT 2 18 Nov 09:53:35 09:54:42 11° 303° (WNW) 09:55:49 437.432
Oscar 11 18 Nov 09:54:16 09:57:44 24° 296° (WNW) 10:01:11 .
POLYITAN 1 18 Nov 09:59:40 10:02:53 21° 63° (ENE) 10:06:05 437.675
BEESAT 3 18 Nov 10:18:44 10:21:32 18° 32° (NNE) 10:24:18 437.485
AIST 2D 18 Nov 10:20:42 10:24:08 83° 76° (ENE) 10:27:38 435.315
QB50P2 18 Nov 10:21:48 10:25:42 37° 68° (ENE) 10:29:38 145.880/145.840
LO-87 18 Nov 10:24:26 10:26:34 15° 91° (E) 10:28:42 145.935 - 145.965
ESTCUBE 1 18 Nov 10:32:37 10:35:36 17° 90° (E) 10:38:34 437.505/2401.250
Oscar 19 18 Nov 10:47:55 10:49:59 12° 52° (NE) 10:52:03 437.125/150
BUGSAT 1 18 Nov 10:50:42 10:53:15 16° 60° (ENE) 10:55:47 437.445
DELFI C3 18 Nov 10:57:01 10:59:59 20° 296° (WNW) 11:02:57 145.870
AO-7 18 Nov 11:01:09 11:02:32 10° 25° (NNE) 11:03:54 .
Max Valier Satellite 18 Nov 11:14:46 11:17:02 16° 297° (WNW) 11:19:19 145.860
DUCHIFAT 1 18 Nov 11:17:02 11:21:16 87° 250° (WSW) 11:25:31 145.980
EO-79 18 Nov 11:19:49 11:24:02 64° 259° (WSW) 11:28:16 145.935-145.965
BEESAT 2 18 Nov 11:21:06 11:24:16 21° 35° (NE) 11:27:24 435.950
EO-88 18 Nov 11:21:27 11:24:00 18° 296° (WNW) 11:26:30 145.990 - 145.960
NANOSAT C BR1 18 Nov 11:25:33 11:29:45 63° 258° (WSW) 11:33:58 145.865
PCSat 18 Nov 11:33:35 11:36:40 16° 256° (WSW) 11:39:45 145.827
POLYITAN 1 18 Nov 11:34:17 11:38:23 45° 261° (W) 11:42:29 437.675
AO-85 18 Nov 11:49:20 11:52:55 23° 34° (NE) 11:56:44 145.980
BEESAT 3 18 Nov 11:55:37 11:59:37 88° 231° (SW) 12:03:31 437.485
LO-87 18 Nov 11:56:49 12:00:12 42° 289° (WNW) 12:03:33 145.935 - 145.965
QB50P2 18 Nov 11:58:04 12:01:35 25° 266° (W) 12:05:06 145.880/145.840
ESTCUBE 1 18 Nov 12:08:19 12:12:47 60° 288° (WNW) 12:17:15 437.505/2401.250
Gurwin Techsat 1B 18 Nov 12:20:02 12:25:07 49° 68° (ENE) 12:30:15 435.225
Oscar 19 18 Nov 12:23:19 12:28:24 69° 72° (ENE) 12:33:31 437.125/150
BUGSAT 1 18 Nov 12:23:57 12:28:08 65° 258° (WSW) 12:32:19 437.445
M-CUBED/EXP-1 PRIME 18 Nov 12:29:23 12:32:16 23° 58° (ENE) 12:35:22 437.505
SPROUT 18 Nov 12:33:30 12:37:46 70° 102° (ESE) 12:41:59 437.525
FALCONSAT 3 18 Nov 12:37:25 12:38:16 11° 173° (S) 12:39:06 435.103
VELOX 1 18 Nov 12:44:33 12:48:59 57° 101° (E) 12:53:22 145.980
AO-7 18 Nov 12:45:43 12:52:40 31° 50° (NE) 12:59:38 .
O/OREOS (USA 219) 18 Nov 12:48:51 12:50:27 12° 97° (E) 12:52:03 437.305
UKube-1 18 Nov 12:56:49 12:58:43 13° 88° (E) 13:00:37 .
BEESAT 2 18 Nov 12:58:22 13:02:24 69° 235° (SW) 13:06:22 435.950
50 SAT 18 Nov 13:13:11 13:16:01 27° 97° (E) 13:18:48 437.505
AO-85 18 Nov 13:29:12 13:33:49 81° 233° (SW) 13:38:48 145.980
BEESAT 3 18 Nov 13:35:38 13:36:28 11° 251° (WSW) 13:37:17 437.485
DX 1 18 Nov 13:41:20 13:45:40 53° 101° (E) 13:49:57 434.975-435.025
Gurwin Techsat 1B 18 Nov 14:00:49 14:05:18 27° 267° (W) 14:09:48 435.225
M-CUBED/EXP-1 PRIME 18 Nov 14:03:22 14:06:33 32° 258° (WSW) 14:09:58 437.505
Oscar 19 18 Nov 14:04:47 14:08:14 18° 270° (W) 14:11:42 437.125/150
BEESAT 18 Nov 14:07:41 14:08:52 11° 86° (E) 14:10:02 436.000
ITAMSAT 1 18 Nov 14:08:13 14:13:10 44° 67° (ENE) 14:18:08 435.822/435.867
SPROUT 18 Nov 14:10:40 14:13:08 15° 301° (WNW) 14:15:34 437.525
ITUPSAT 1 18 Nov 14:14:13 14:16:15 12° 87° (E) 14:18:17 437.325
FALCONSAT 3 18 Nov 14:16:23 14:16:25 10° 189° (S) 14:16:27 435.103
VELOX 1 18 Nov 14:21:52 14:25:01 19° 300° (WNW) 14:28:10 145.980
O/OREOS (USA 219) 18 Nov 14:24:29 14:29:06 90° 66° (ENE) 14:33:44 437.305
UKube-1 18 Nov 14:30:55 14:35:16 77° 286° (WNW) 14:39:35 .
DOVE 4 18 Nov 14:35:07 14:38:06 16° 56° (NE) 14:41:08 437.250
AO-7 18 Nov 14:36:26 14:44:44 79° 252° (WSW) 14:53:06 .
50 SAT 18 Nov 14:45:33 14:47:59 20° 294° (WNW) 14:50:24 437.505
MOZHAYETS 4 18 Nov 14:58:01 15:02:22 42° 98° (E) 15:06:41
CUBESAT XI-V 18 Nov 15:01:56 15:03:59 13° 87° (E) 15:06:02 437.345
AO-85 18 Nov 15:11:25 15:13:39 13° 250° (WSW) 15:15:56 145.980
NO-84 18 Nov 15:12:35 15:13:33 11° 123° (ESE) 15:14:32 435.350 FM
YUBILEINY 18 Nov 15:17:14 15:24:34 28° 60° (ENE) 15:31:52 435.215
DX 1 18 Nov 15:18:18 15:21:29 20° 299° (WNW) 15:24:40 434.975-435.025
CUTE-I 18 Nov 15:20:22 15:21:22 10° 49° (NE) 15:22:22 437.470
BEESAT 18 Nov 15:42:37 15:47:24 83° 106° (ESE) 15:52:09 436.000
ITAMSAT 1 18 Nov 15:48:14 15:52:47 29° 265° (W) 15:57:21 435.822/435.867
ITUPSAT 1 18 Nov 15:49:57 15:54:45 87° 287° (WNW) 15:59:30 437.325
XW-2B 18 Nov 15:53:04 15:54:34 12° 60° (ENE) 15:56:04 145.730 - 145.750
O/OREOS (USA 219) 18 Nov 16:06:20 16:09:13 16° 316° (NW) 16:12:06 437.305
UKube-1 18 Nov 16:09:22 16:10:31 11° 305° (NW) 16:11:40 .
DOVE 4 18 Nov 16:09:57 16:14:58 87° 74° (ENE) 16:20:14 437.250
LilacSat-2 18 Nov 16:14:31 16:17:25 21° 65° (ENE) 16:20:19 437.200
XW-2C 18 Nov 16:16:52 16:19:43 21° 65° (ENE) 16:22:35 145.795 - 145.815
HO-68 18 Nov 16:20:10 16:25:33 23° 51° (NE) 16:30:56 435.675
NUDT-PHONESAT 18 Nov 16:21:57 16:24:21 17° 63° (ENE) 16:26:44 437.300
XW-2F 18 Nov 16:30:25 16:33:35 27° 67° (ENE) 16:36:45 145.980 - 146.000
AO-7 18 Nov 16:33:29 16:38:50 18° 273° (W) 16:44:14 .
MOZHAYETS 4 18 Nov 16:35:34 16:39:19 26° 296° (WNW) 16:43:03
CUBESAT XI-V 18 Nov 16:37:17 16:41:59 85° 286° (WNW) 16:46:40 437.345
CUTE 1.7 + AOD 2 18 Nov 16:42:11 16:43:58 13° 58° (ENE) 16:45:47 437.475
NO-84 18 Nov 16:46:17 16:50:05 61° 142° (SE) 16:54:09 435.350 FM
CUTE-I 18 Nov 16:55:03 17:00:15 54° 69° (ENE) 17:05:30 437.470
CUBEBUG 2 18 Nov 17:02:51 17:05:14 14° 59° (ENE) 17:07:35 437.445
KAITUO 1B 18 Nov 17:03:46 17:07:18 48° 72° (ENE) 17:10:53 145.475/437.950
XW-2D 18 Nov 17:09:46 17:13:30 82° 74° (ENE) 17:17:16 145.860 - 145.880
YUBILEINY 18 Nov 17:13:34 17:22:27 81° 265° (W) 17:31:17 435.215
KKS-1 18 Nov 17:14:24 17:18:50 57° 101° (E) 17:23:13 437.445
RS-15 18 Nov 17:17:22 17:25:10 20° 96° (E) 17:32:55 29.354- 29.394
SEEDS 18 Nov 17:18:08 17:20:55 18° 62° (ENE) 17:23:42 437.485
BEESAT 18 Nov 17:21:45 17:24:33 16° 303° (WNW) 17:27:20 436.000
XW-2B 18 Nov 17:24:30 17:28:13 70° 258° (WSW) 17:31:58 145.730 - 145.750
ITUPSAT 1 18 Nov 17:29:25 17:31:52 14° 305° (NW) 17:34:18 437.325
AAUSAT CUBESAT 2 18 Nov 17:36:15 17:38:05 13° 59° (ENE) 17:39:57 437.432
LilacSat-2 18 Nov 17:48:03 17:51:30 34° 263° (W) 17:54:59 437.200
STARS 18 Nov 17:48:14 17:52:34 52° 100° (E) 17:56:51 437.465
XW-2C 18 Nov 17:50:17 17:53:43 34° 263° (W) 17:57:10 145.795 - 145.815
DOVE 4 18 Nov 17:50:45 17:53:24 14° 275° (W) 17:56:06 437.250
NUDT-PHONESAT 18 Nov 17:54:24 17:57:53 43° 261° (W) 18:01:24 437.300
ZACube-1 18 Nov 18:04:06 18:06:52 17° 61° (ENE) 18:09:37 437.345
XW-2F 18 Nov 18:04:30 18:07:39 26° 265° (W) 18:10:50 145.980 - 146.000
UWE-3 18 Nov 18:04:58 18:08:50 29° 67° (ENE) 18:12:37 435.000/436.395/437.385
HO-68 18 Nov 18:05:11 18:12:24 89° 72° (ENE) 18:19:40 435.675
CUTE 1.7 + AOD 2 18 Nov 18:14:58 18:19:10 85° 258° (WSW) 18:23:24 437.475
CUBESAT XI-V 18 Nov 18:16:28 18:18:38 13° 304° (WNW) 18:20:49 437.345
NO-84 18 Nov 18:23:48 18:27:38 42° 343° (NNW) 18:31:39 435.350 FM
XW-2A 18 Nov 18:34:37 18:37:49 47° 72° (ENE) 18:41:02 145.665 - 145.685
CUTE-I 18 Nov 18:36:15 18:40:37 25° 267° (W) 18:45:00 437.470
CUBEBUG 2 18 Nov 18:36:37 18:41:16 84° 258° (WSW) 18:45:47 437.445
FO-29 18 Nov 18:38:21 18:40:00 11° 76° (ENE) 18:41:38 435.910
KAITUO 1B 18 Nov 18:39:32 18:41:34 14° 270° (W) 18:43:38 145.475/437.950
KKS-1 18 Nov 18:51:48 18:55:00 20° 300° (WNW) 18:58:11 437.445
SEEDS 18 Nov 18:52:07 18:56:11 55° 260° (W) 19:00:19 437.485
AO-73 18 Nov 18:55:35 18:59:41 44° 70° (ENE) 19:03:43 145.935
AAUSAT CUBESAT 2 18 Nov 19:08:49 19:12:56 81° 257° (WSW) 19:17:07 437.432
YUBILEINY 18 Nov 19:12:08 19:17:49 19° 286° (WNW) 19:23:31 435.215
Oscar 11 18 Nov 19:15:40 19:19:48 49° 71° (ENE) 19:23:57 .
RS-15 18 Nov 19:23:11 19:35:21 70° 120° (ESE) 19:47:25 29.354- 29.394
STARS 18 Nov 19:25:20 19:28:34 20° 299° (WNW) 19:31:46 437.465
STRAND 1 18 Nov 19:27:32 19:32:36 58° 101° (E) 19:37:38 437.568
ZACube-1 18 Nov 19:38:26 19:42:44 61° 259° (W) 19:46:59 437.345
UWE-3 18 Nov 19:41:09 19:45:13 33° 264° (W) 19:49:12 435.000/436.395/437.385
HO-68 18 Nov 19:56:01 20:01:04 20° 272° (W) 20:06:10 435.675
NO-84 18 Nov 20:01:56 20:05:43 33° 4° (N) 20:09:36 435.350 FM
XW-2A 18 Nov 20:09:27 20:10:47 12° 270° (W) 20:12:08 145.665 - 145.685
DELFI C3 18 Nov 20:10:02 20:13:44 39° 69° (ENE) 20:17:28 145.870
CUBEBUG 2 18 Nov 20:17:38 20:18:31 10° 274° (W) 20:19:24 437.445
FO-29 18 Nov 20:19:09 20:26:51 53° 97° (E) 20:34:15 435.910
Max Valier Satellite 18 Nov 20:22:01 20:25:23 35° 70° (ENE) 20:28:45 145.860
EO-88 18 Nov 20:28:04 20:31:14 30° 69° (ENE) 20:34:27 145.990 - 145.960
AO-73 18 Nov 20:32:50 20:36:07 21° 268° (W) 20:39:21 145.935
Oscar 11 18 Nov 20:53:08 20:56:12 19° 269° (W) 20:59:18 .
UNISAT 6 18 Nov 20:59:16 21:02:21 19° 91° (E) 21:05:23 437.425
TIGRISAT 18 Nov 21:04:29 21:07:36 19° 91° (E) 21:10:42 435.000
LO-87 18 Nov 21:04:33 21:06:07 12° 61° (ENE) 21:07:42 145.935 - 145.965
STRAND 1 18 Nov 21:07:25 21:11:24 23° 300° (WNW) 21:15:23 437.568
PRISM 18 Nov 21:22:38 21:24:03 11° 88° (E) 21:25:28 437.425
ESTCUBE 1 18 Nov 21:35:22 21:39:00 25° 63° (ENE) 21:42:38 437.505/2401.250
nSIGHT-1 18 Nov 21:36:16 21:38:34 18° 139° (SE) 21:40:52 .
RS-15 18 Nov 21:36:36 21:48:36 53° 327° (NNW) 22:00:23 29.354- 29.394
NO-84 18 Nov 21:39:28 21:43:40 59° 25° (NNE) 21:47:55 435.350 FM
DELFI C3 18 Nov 21:45:38 21:48:38 20° 268° (W) 21:51:38 145.870
Max Valier Satellite 18 Nov 21:56:39 21:59:19 19° 267° (W) 22:02:00 145.860
SPROUT 18 Nov 21:57:28 21:58:52 11° 56° (ENE) 22:00:15 437.525
EO-88 18 Nov 22:02:02 22:04:55 22° 266° (W) 22:07:49 145.990 - 145.960
FO-29 18 Nov 22:04:23 22:11:40 43° 298° (WNW) 22:18:48 435.910
ISS 18 Nov 22:09:34 22:12:25 28° 143° (SE) 22:15:17 437.550
VELOX 1 18 Nov 22:12:02 22:13:36 12° 55° (NE) 22:15:11 145.980
SO-50 18 Nov 22:29:51 22:34:07 46° 121° (ESE) 22:38:27 436.795
UNISAT 6 18 Nov 22:35:11 22:39:21 48° 289° (WNW) 22:43:27 437.425
LO-87 18 Nov 22:35:28 22:39:02 63° 258° (WSW) 22:42:39 145.935 - 145.965
TIGRISAT 18 Nov 22:40:26 22:44:34 46° 290° (WNW) 22:48:38 435.000
O/OREOS (USA 219) 18 Nov 22:51:49 22:56:12 43° 57° (ENE) 23:00:31 437.305
PRISM 18 Nov 22:55:40 22:59:52 79° 285° (WNW) 23:04:01 437.425
DUCHIFAT 1 18 Nov 22:59:20 23:00:40 11° 87° (E) 23:01:59 145.980
EO-79 18 Nov 23:01:42 23:04:17 16° 90° (E) 23:06:51 145.935-145.965
NANOSAT C BR1 18 Nov 23:07:02 23:09:38 16° 90° (E) 23:12:12 145.865
DX 1 18 Nov 23:07:53 23:08:55 11° 54° (NE) 23:09:58 434.975-435.025
nSIGHT-1 18 Nov 23:11:13 23:14:26 88° 157° (SSE) 23:17:39 .
ESTCUBE 1 18 Nov 23:11:20 23:15:35 42° 262° (W) 23:19:52 437.505/2401.250
AIST 2D 18 Nov 23:14:43 23:18:13 60° 101° (E) 23:21:42 435.315
POLYITAN 1 18 Nov 23:15:37 23:18:53 21° 93° (E) 23:22:07 437.675
NO-84 18 Nov 23:17:01 23:20:57 36° 224° (SW) 23:24:49 435.350 FM
SPROUT 18 Nov 23:29:45 23:34:02 83° 75° (ENE) 23:38:21 437.525
QB50P2 18 Nov 23:38:11 23:42:10 40° 98° (E) 23:46:07 145.880/145.840
50 SAT 18 Nov 23:44:14 23:46:25 17° 65° (ENE) 23:48:37 437.505
VELOX 1 18 Nov 23:44:51 23:49:17 79° 73° (ENE) 23:53:46 145.980
ISS 18 Nov 23:45:27 23:48:43 70° 342° (NNW) 23:51:59 437.550
FO-29 18 Nov 23:51:45 23:54:44 13° 319° (NW) 23:57:44 435.910
RS-15 18 Nov 23:53:29 00:04:31 36° 359° (N) 00:15:11 29.354- 29.394
UKube-1 18 Nov 23:54:10 23:57:10 19° 60° (ENE) 00:00:11 .
BUGSAT 1 19 Nov 00:03:21 00:05:25 14° 89° (E) 00:07:27 437.445
SO-50 19 Nov 00:10:41 00:14:44 32° 322° (NW) 00:18:49 436.795
O/OREOS (USA 219) 19 Nov 00:31:40 00:35:23 25° 257° (WSW) 00:39:03 437.305
Oscar 19 19 Nov 00:31:59 00:35:30 18° 90° (E) 00:38:58 437.125/150
DUCHIFAT 1 19 Nov 00:32:41 00:36:53 79° 285° (WNW) 00:41:02 145.980
PRISM 19 Nov 00:33:30 00:34:24 11° 304° (NW) 00:35:17 437.425
Gurwin Techsat 1B 19 Nov 00:33:53 00:36:37 14° 87° (E) 00:39:21 435.225
PCSat 19 Nov 00:33:54 00:38:54 39° 114° (ESE) 00:43:55 145.827
EO-79 19 Nov 00:36:16 00:40:25 57° 288° (WNW) 00:44:31 145.935-145.965
DX 1 19 Nov 00:39:57 00:44:18 74° 73° (ENE) 00:48:42 434.975-435.025
NANOSAT C BR1 19 Nov 00:41:35 00:45:42 56° 288° (WNW) 00:49:47 145.865
nSIGHT-1 19 Nov 00:47:46 00:50:53 44° 357° (N) 00:53:58 .
AIST 2D 19 Nov 00:49:27 00:50:56 12° 298° (WNW) 00:52:25 435.315
POLYITAN 1 19 Nov 00:50:53 00:54:50 41° 291° (WNW) 00:58:45 437.675
SPROUT 19 Nov 01:09:07 01:10:31 11° 273° (W) 01:11:54 437.525
QB50P2 19 Nov 01:14:25 01:17:45 23° 296° (WNW) 01:21:05 145.880/145.840
50 SAT 19 Nov 01:15:21 01:18:19 32° 262° (W) 01:21:18 437.505
BEESAT 19 Nov 01:16:13 01:19:48 21° 60° (ENE) 01:23:22 436.000
ISS 19 Nov 01:22:19 01:25:28 44° 2° (N) 01:28:38 437.550
ITUPSAT 1 19 Nov 01:23:36 01:27:24 24° 61° (ENE) 01:31:13 437.325
VELOX 1 19 Nov 01:24:22 01:26:18 13° 272° (W) 01:28:15 145.980
UKube-1 19 Nov 01:28:33 01:32:47 56° 258° (WSW) 01:37:05 .
BUGSAT 1 19 Nov 01:37:10 01:41:12 62° 287° (WNW) 01:45:10 437.445
M-CUBED/EXP-1 PRIME 19 Nov 01:38:31 01:40:19 12° 94° (E) 01:42:07 437.505
SO-50 19 Nov 01:54:40 01:56:35 12° 345° (NNW) 01:58:30 436.795
MOZHAYETS 4 19 Nov 02:03:05 02:07:35 61° 72° (ENE) 02:12:06
CUBESAT XI-V 19 Nov 02:08:15 02:11:33 20° 61° (ENE) 02:14:52 437.345
RS-15 19 Nov 02:08:42 02:20:27 51° 32° (NNE) 02:31:35 29.354- 29.394
Oscar 19 19 Nov 02:10:11 02:15:19 70° 288° (WNW) 02:20:27 437.125/150
DUCHIFAT 1 19 Nov 02:11:02 02:11:48 10° 304° (NW) 02:12:33 145.980
Gurwin Techsat 1B 19 Nov 02:11:58 02:17:20 89° 130° (SE) 02:22:40 435.225
PCSat 19 Nov 02:17:09 02:22:17 42° 314° (NW) 02:27:27 145.827
DX 1 19 Nov 02:18:53 02:21:00 13° 271° (W) 02:23:08 434.975-435.025
ITAMSAT 1 19 Nov 02:19:57 02:21:07 11° 85° (E) 02:22:19 435.822/435.867
nSIGHT-1 19 Nov 02:24:12 02:27:23 65° 16° (NNE) 02:30:35 .
AO-7 19 Nov 02:34:19 02:41:17 28° 93° (E) 02:48:12 .
KKS-1 19 Nov 02:42:25 02:44:13 12° 55° (NE) 02:46:02 437.445
BEESAT 19 Nov 02:52:29 02:57:11 57° 259° (W) 03:01:55 436.000
ISS 19 Nov 02:58:53 03:02:10 87° 13° (NNE) 03:05:26 437.550
ITUPSAT 1 19 Nov 03:00:17 03:04:56 50° 260° (W) 03:09:36 437.325
M-CUBED/EXP-1 PRIME 19 Nov 03:10:44 03:15:12 89° 114° (ESE) 03:19:50 437.505
STARS 19 Nov 03:15:32 03:16:44 11° 54° (NE) 03:17:57 437.465
BEESAT 3 19 Nov 03:25:03 03:28:52 45° 122° (ESE) 03:32:44 437.485
SO-50 19 Nov 03:37:38 03:39:05 11° 11° (N) 03:40:33 436.795
MOZHAYETS 4 19 Nov 03:42:10 03:45:08 17° 270° (W) 03:48:08
CUBESAT XI-V 19 Nov 03:44:00 03:48:31 58° 260° (W) 03:53:05 437.345
AO-85 19 Nov 03:50:45 03:51:32 10° 108° (ESE) 03:52:20 145.980
Oscar 19 19 Nov 03:51:35 03:53:44 13° 308° (NW) 03:55:53 437.125/150
Gurwin Techsat 1B 19 Nov 03:53:15 03:56:34 17° 305° (NW) 03:59:51 435.225
ITAMSAT 1 19 Nov 03:56:15 04:01:30 74° 104° (ESE) 04:06:42 435.822/435.867
nSIGHT-1 19 Nov 04:00:37 04:03:29 30° 215° (SW) 04:06:20 .
PCSat 19 Nov 04:04:12 04:07:10 15° 338° (NNW) 04:10:09 145.827
DOVE 4 19 Nov 04:05:53 04:09:53 21° 89° (E) 04:13:44 437.250
KKS-1 19 Nov 04:15:33 04:20:03 82° 73° (ENE) 04:24:34 437.445
RS-15 19 Nov 04:21:50 04:33:39 70° 240° (WSW) 04:44:47 29.354- 29.394
YUBILEINY 19 Nov 04:24:37 04:31:22 26° 78° (ENE) 04:38:08 435.215
AO-7 19 Nov 04:26:28 04:34:48 76° 294° (WNW) 04:43:08 .
BEESAT 2 19 Nov 04:29:26 04:33:25 62° 124° (SE) 04:37:27 435.950
ISS 19 Nov 04:35:50 04:38:20 20° 220° (SW) 04:40:49 437.550
M-CUBED/EXP-1 PRIME 19 Nov 04:46:29 04:49:01 15° 307° (NW) 04:51:37 437.505
STARS 19 Nov 04:47:51 04:52:17 74° 74° (ENE) 04:56:44 437.465
BEESAT 3 19 Nov 05:03:07 05:06:35 27° 321° (NW) 05:10:03 437.485
CUTE-I 19 Nov 05:09:29 05:12:41 16° 88° (E) 05:15:53 437.470
STRAND 1 19 Nov 05:09:48 05:13:28 20° 58° (ENE) 05:17:08 437.568
SO-50 19 Nov 05:17:16 05:21:08 25° 34° (NE) 05:25:01 436.795
LilacSat-2 19 Nov 05:17:39 05:20:26 19° 92° (E) 05:23:12 437.200
XW-2C 19 Nov 05:19:15 05:21:56 18° 92° (E) 05:24:37 145.795 - 145.815
NUDT-PHONESAT 19 Nov 05:21:44 05:23:35 13° 90° (E) 05:25:24 437.300
AO-85 19 Nov 05:27:14 05:31:09 89° 277° (W) 05:35:18 145.980
HO-68 19 Nov 05:31:10 05:34:32 14° 84° (E) 05:37:54 435.675
XW-2F 19 Nov 05:32:17 05:35:22 23° 94° (E) 05:38:26 145.980 - 146.000
ITAMSAT 1 19 Nov 05:36:45 05:40:25 20° 303° (WNW) 05:44:04 435.822/435.867
DOVE 4 19 Nov 05:42:44 05:47:57 60° 289° (WNW) 05:52:56 437.250
PCSat 19 Nov 05:52:05 05:53:06 10° 5° (N) 05:54:07 145.827
KKS-1 19 Nov 05:55:20 05:57:11 12° 272° (W) 05:59:04 437.445
CUTE 1.7 + AOD 2 19 Nov 05:57:27 05:59:34 13° 88° (E) 06:01:41 437.475
KAITUO 1B 19 Nov 06:04:41 06:08:16 41° 98° (E) 06:11:50 145.475/437.950
BEESAT 2 19 Nov 06:08:13 06:11:29 23° 324° (NW) 06:14:47 435.950
XW-2D 19 Nov 06:12:21 06:16:09 73° 102° (ESE) 06:19:58 145.860 - 145.880
YUBILEINY 19 Nov 06:18:24 06:27:10 80° 280° (W) 06:36:04 435.215
AO-7 19 Nov 06:20:15 06:26:21 23° 316° (NW) 06:32:28 .
CUBEBUG 2 19 Nov 06:25:03 06:27:27 15° 89° (E) 06:29:49 437.445
STARS 19 Nov 06:26:55 06:29:08 14° 271° (W) 06:31:22 437.465
XW-2B 19 Nov 06:27:05 06:30:54 80° 285° (WNW) 06:34:42 145.730 - 145.750
SEEDS 19 Nov 06:32:35 06:35:40 19° 91° (E) 06:38:43 437.485
FO-29 19 Nov 06:35:07 06:41:06 35° 59° (ENE) 06:47:40 435.910
RS-15 19 Nov 06:36:32 06:43:38 19° 265° (W) 06:50:34 29.354- 29.394
STRAND 1 19 Nov 06:47:00 06:52:08 71° 257° (WSW) 06:57:18 437.568
AAUSAT CUBESAT 2 19 Nov 06:48:38 06:50:32 13° 88° (E) 06:52:27 437.432
